DW3201 Weather Reports


time (UTC)temp
F
wind
direction
speed
knots
gust
knots
rain 1hr
in
rain 24hr
in
rain mn
in
humidity
%
barometer
mb
20260506014608 49 0 0.0 0.0 0.00 0.00 0.00 43 1009.0
20260506013055 51 0 0.0 0.0 0.00 0.00 0.00 40 1008.7
20260506011617 52 0 0.0 0.9 0.00 0.00 0.00 38 1008.4
20260506010054 52 243 0.9 5.2 0.00 0.00 0.00 36 1008.3
20260506004603 53 283 0.0 4.3 0.00 0.00 0.00 36 1008.0
20260506003052 54 308 0.0 5.2 0.00 0.00 0.00 34 1007.8
20260506001556 54 0 0.9 4.3 0.00 0.00 0.00 33 1007.6
20260506000117 55 255 0.9 3.5 0.00 0.00 0.00 33 1007.5
20260505234554 55 292 0.9 4.3 0.00 0.00 0.00 32 1007.4
20260505233057 55 252 1.7 8.7 0.00 0.00 0.00 32 1007.3
20260505231559 56 0 0.9 7.8 0.00 0.00 0.00 30 1007.3
20260505230106 56 292 0.9 6.1 0.00 0.00 0.00 32 1007.3
20260505224557 57 0 2.6 7.8 0.00 0.00 0.00 29 1007.4
20260505223054 56 284 2.6 6.1 0.00 0.00 0.00 29 1007.4
20260505221559 56 281 4.3 7.8 0.00 0.00 0.00 28 1007.2
20260505220054 56 285 4.3 11.3 0.00 0.00 0.00 29 1007.1
20260505214553 56 288 7.0 15.6 0.00 0.00 0.00 28 1007.2
20260505213056 56 302 4.3 10.4 0.00 0.00 0.00 30 1007.3
20260505211555 57 278 1.7 9.6 0.00 0.00 0.00 29 1007.2
20260505210052 56 292 1.7 9.6 0.00 0.00 0.00 29 1007.2
20260505204600 57 290 1.7 10.4 0.00 0.00 0.00 30 1007.3
20260505203100 57 0 3.5 9.6 0.00 0.00 0.00 30 1007.4
20260505201553 56 285 4.3 13.9 0.00 0.00 0.00 32 1007.7
20260505200054 56 286 4.3 13.0 0.00 0.00 0.00 32 1007.7
20260505194609 55 291 6.1 16.5 0.00 0.00 0.00 32 1008.0
20260505193052 55 266 6.1 11.3 0.00 0.00 0.00 33 1008.1
20260505191606 55 207 3.5 13.0 0.00 0.00 0.00 33 1008.3
20260505190054 54 285 6.1 12.2 0.00 0.00 0.00 33 1008.3
20260505184553 54 295 5.2 12.2 0.00 0.00 0.00 33 1008.2
20260505183055 54 261 7.0 14.8 0.00 0.00 0.00 33 1007.9
20260505181552 54 284 6.1 10.4 0.00 0.00 0.00 33 1007.8
20260505180057 54 291 8.7 13.0 0.00 0.00 0.00 31 1007.6
20260505174554 55 284 7.0 12.2 0.00 0.00 0.00 30 1007.6
20260505173113 54 302 5.2 18.2 0.00 0.00 0.00 29 1007.7
20260505171618 54 297 4.3 13.0 0.00 0.00 0.00 31 1007.7
20260505170055 53 255 5.2 11.3 0.00 0.00 0.00 34 1007.7
20260505164558 53 269 5.2 12.2 0.00 0.00 0.00 32 1007.4
20260505163052 53 281 4.3 13.0 0.00 0.00 0.00 33 1007.4
20260505161555 53 293 3.5 11.3 0.00 0.00 0.00 36 1007.8
20260505153054 53 288 2.6 10.4 0.00 0.00 0.00 37 1007.4
20260505151555 53 278 3.5 13.9 0.00 0.00 0.00 38 1007.5
20260505150110 52 231 4.3 12.2 0.00 0.00 0.00 39 1007.4
20260505130111 49 276 2.6 6.1 0.00 0.00 0.00 43 1007.5
20260505124608 48 295 1.7 4.3 0.00 0.00 0.00 45 1007.4
20260505123105 47 259 1.7 6.1 0.00 0.00 0.00 46 1008.0
20260505121623 46 0 0.0 2.6 0.00 0.00 0.00 53 1007.2
20260505120054 45 261 0.9 4.3 0.00 0.00 0.00 54 1008.1
20260505114555 44 256 0.0 1.7 0.00 0.00 0.00 57 1006.9
20260505113105 44 0 0.0 0.0 0.00 0.00 0.00 59 1006.1
20260505111556 44 0 0.0 1.7 0.00 0.00 0.00 56 1006.0
20260505101559 45 339 0.0 1.7 0.00 0.00 0.00 53 1005.7
20260505100136 46 302 0.0 4.3 0.00 0.00 0.00 52 1005.9
20260505094555 46 0 0.9 3.5 0.00 0.00 0.00 51 1005.4
20260505093054 46 0 0.0 2.6 0.00 0.00 0.00 51 1005.7
20260505091616 46 0 0.0 1.7 0.00 0.00 0.00 52 1005.9
20260505084552 47 0 0.0 1.7 0.00 0.00 0.00 52 1004.8
20260505083053 47 235 0.0 2.6 0.00 0.00 0.00 51 1004.5
20260505081551 48 284 0.9 4.3 0.00 0.00 0.00 48 1004.1
20260505080056 49 77 2.6 10.4 0.00 0.00 0.00 48 1003.9
20260505074555 49 0 0.0 2.6 0.00 0.00 0.00 52 1003.5
20260505073100 50 301 0.9 6.1 0.00 0.00 0.00 50 1003.1
20260505071553 50 108 0.9 3.5 0.00 0.00 0.00 49 1002.9
20260505070052 51 290 0.0 6.1 0.00 0.00 0.00 47 1002.8
20260505064602 52 259 0.9 4.3 0.00 0.00 0.00 48 1002.7
20260505063053 53 297 0.9 4.3 0.00 0.00 0.00 48 1002.1
20260505061552 54 274 1.7 7.0 0.00 0.00 0.00 46 1002.0
20260505060055 55 215 0.9 4.3 0.00 0.00 0.00 45 1001.9
20260505054618 55 338 0.9 3.5 0.00 0.00 0.00 43 1001.9
20260505053056 56 281 2.6 7.8 0.00 0.00 0.00 42 1001.6
20260505051552 57 273 2.6 6.1 0.00 0.00 0.00 40 1001.3
20260505041605 60 293 3.5 7.8 0.00 0.00 0.00 35 1000.2
20260505040058 61 278 2.6 5.2 0.00 0.00 0.00 38 1000.0
20260505034554 61 273 1.7 5.2 0.00 0.00 0.00 39 999.9
20260505033056 62 287 0.9 4.3 0.00 0.00 0.00 38 1000.1
20260505031554 62 268 1.7 3.5 0.00 0.00 0.00 37 1000.0
20260505030107 63 281 1.7 4.3 0.00 0.00 0.00 36 999.6
20260505024603 63 308 3.5 8.7 0.00 0.00 0.00 34 999.4
20260505023059 64 266 3.5 7.8 0.00 0.00 0.00 34 999.1
20260505021601 65 231 4.3 11.3 0.00 0.00 0.00 35 998.8
20260505020105 67 290 4.3 8.7 0.00 0.00 0.00 35 998.3